Location: Eschertshofen
(49.3064°N, 11.5756°E)
Time: 00:58:48
(UTC+00:00)

Iridium 26 - Pass Details

Date: 27 September 2021
Orbit: 772 x 775 km, 86.4° (Epoch: 21 October)

Event Time Altitude Azimuth Distance (km) Brightness Sun altitude
Exits shadow 19:48:01 28° 34° (NNE) 1,421 6.8 -26.9°
Drops below altitude 10° 19:50:43 10° 15° (NNE) 2,333 8.2 -27.3°
Sets 19:53:09 0° 10° (N) 3,265 9.1 -27.6°
